Back to driving schools

Wilco V.O.F.

Deurne

CBR exam results

2025-07-01 / 2026-06-30
Scooter · AM2 — Exam results
ExamFirst examsPassed first timeRetakesPassed on a retake
Scooter · AM2447406 passed90.8%5555 passed100%

Scooter · AM2

First exams
90.8% 406 of 447 passed
Retakes
100% 55 of 55 passed
About these figures

Scooter · AM2. Standard practical exams only. AM2, excluding microcar exams.

Pass rate over time

2015–2026 · 44 reporting periods

First attemptRetakes
0%25%50%75%100%20152017201920212022202420262014-10-01 / 2015-09-30: 92%2014-10-01 / 2015-09-30: 100%2015-01-01 / 2015-12-31: 89.3%2015-01-01 / 2015-12-31: 100%2015-04-01 / 2016-03-31: 86.7%2015-04-01 / 2016-03-31: 100%2015-07-01 / 2016-06-30: 88.1%2015-07-01 / 2016-06-30: 100%2015-10-01 / 2016-09-30: 80.5%2015-10-01 / 2016-09-30: 94.7%2016-01-01 / 2016-12-31: 81%2016-01-01 / 2016-12-31: 96.2%2016-04-01 / 2017-03-31: 79.1%2016-04-01 / 2017-03-31: 96.3%2016-07-01 / 2017-06-30: 77.3%2016-07-01 / 2017-06-30: 90.2%2016-10-01 / 2017-09-30: 79.5%2016-10-01 / 2017-09-30: 84.6%2017-01-01 / 2017-12-31: 78.5%2017-01-01 / 2017-12-31: 86%2017-04-01 / 2018-03-31: 82.1%2017-04-01 / 2018-03-31: 84.1%2017-07-01 / 2018-06-30: 83.8%2017-07-01 / 2018-06-30: 84.8%2017-10-01 / 2018-09-30: 82.2%2017-10-01 / 2018-09-30: 94.7%2018-01-01 / 2018-12-31: 81.5%2018-01-01 / 2018-12-31: 90.2%2018-04-01 / 2019-03-31: 80.5%2018-04-01 / 2019-03-31: 90.6%2018-07-01 / 2019-06-30: 79.3%2018-07-01 / 2019-06-30: 91.7%2018-10-01 / 2019-09-30: 83%2018-10-01 / 2019-09-30: 87%2019-01-01 / 2019-12-31: 87.4%2019-01-01 / 2019-12-31: 87.9%2019-04-01 / 2020-03-31: 85.8%2019-04-01 / 2020-03-31: 89.2%2019-07-01 / 2020-06-30: 87%2019-07-01 / 2020-06-30: 90.9%2019-10-01 / 2020-09-30: 88.3%2019-10-01 / 2020-09-30: 97.1%2020-01-01 / 2020-12-31: 89.4%2020-01-01 / 2020-12-31: 97.2%2020-04-01 / 2021-03-31: 92.1%2020-04-01 / 2021-03-31: 100%2020-07-01 / 2021-06-30: 93.9%2020-07-01 / 2021-06-30: 100%2020-10-01 / 2021-09-30: 94.2%2020-10-01 / 2021-09-30: 100%2021-01-01 / 2021-12-31: 93.5%2021-01-01 / 2021-12-31: 96.9%2021-04-01 / 2022-03-31: 92.6%2021-04-01 / 2022-03-31: 97.8%2021-07-01 / 2022-06-30: 91.8%2021-07-01 / 2022-06-30: 96.1%2021-10-01 / 2022-09-30: 91.1%2021-10-01 / 2022-09-30: 96.4%2022-01-01 / 2022-12-31: 89.8%2022-01-01 / 2022-12-31: 98.3%2022-04-01 / 2023-03-31: 89%2022-04-01 / 2023-03-31: 96.6%2022-07-01 / 2023-06-30: 88.2%2022-07-01 / 2023-06-30: 98.4%2022-10-01 / 2023-09-30: 88%2022-10-01 / 2023-09-30: 96.7%2023-01-01 / 2023-12-31: 88.5%2023-01-01 / 2023-12-31: 93.2%2023-04-01 / 2024-03-31: 88.7%2023-04-01 / 2024-03-31: 94.4%2023-07-01 / 2024-06-30: 88.4%2023-07-01 / 2024-06-30: 90.3%2023-10-01 / 2024-09-30: 86.9%2023-10-01 / 2024-09-30: 91.2%2024-01-01 / 2024-12-31: 84%2024-01-01 / 2024-12-31: 93.4%2024-04-01 / 2025-03-31: 85.7%2024-04-01 / 2025-03-31: 92.6%2024-06-01 / 2025-06-30: 84.5%2024-06-01 / 2025-06-30: 96.2%2024-10-01 / 2025-09-30: 87.2%2024-10-01 / 2025-09-30: 97.2%2025-01-01 / 2025-12-31: 89.4%2025-01-01 / 2025-12-31: 98.4%2025-04-01 / 2026-03-31: 88.5%2025-04-01 / 2026-03-31: 100%2025-07-01 / 2026-06-30: 90.8%2025-07-01 / 2026-06-30: 100%
First attempt90.8%447 exams
Retakes100%55 exams
CBR source file ↗
All figures and notes (44)

CBR periods overlap and are not added together. Missing data does not mean 0%.

Results per CBR school code. Students and exam timing affect the figures.

PeriodFirst attemptPass rateRetakesPass rate
2025-07-01 / 2026-06-3044790.8%55100%
2025-04-01 / 2026-03-3145288.5%64100%
2025-01-01 / 2025-12-3143389.4%6398.4%
2024-10-01 / 2025-09-3043987.2%7297.2%
2024-06-01 / 2025-06-3038684.5%7996.2%
2024-04-01 / 2025-03-3137185.7%8192.6%
2024-01-01 / 2024-12-3136384%7693.4%
2023-10-01 / 2024-09-3035886.9%6891.2%
2023-07-01 / 2024-06-3036188.4%6290.3%
2023-04-01 / 2024-03-3136488.7%5494.4%
2023-01-01 / 2023-12-3137388.5%5993.2%
2022-10-01 / 2023-09-3038388%6196.7%
2022-07-01 / 2023-06-3043388.2%6498.4%
2022-04-01 / 2023-03-3145689%5996.6%
2022-01-01 / 2022-12-3148989.8%5998.3%
2021-10-01 / 2022-09-3050591.1%5696.4%
2021-07-01 / 2022-06-3055191.8%5196.1%
2021-04-01 / 2022-03-3151592.6%4597.8%
2021-01-01 / 2021-12-3140293.5%3296.9%
2020-10-01 / 2021-09-3034394.2%24100%
2020-07-01 / 2021-06-3027893.9%20100%
2020-04-01 / 2021-03-3124292.1%25100%
2020-01-01 / 2020-12-3128289.4%3697.2%
2019-10-01 / 2020-09-3026488.3%3497.1%
2019-07-01 / 2020-06-3023187%3390.9%
2019-04-01 / 2020-03-3123285.8%3789.2%
2019-01-01 / 2019-12-3121587.4%3387.9%
2018-10-01 / 2019-09-3022983%5487%
2018-07-01 / 2019-06-3023279.3%6091.7%
2018-04-01 / 2019-03-3124180.5%5390.6%
2018-01-01 / 2018-12-3123281.5%5190.2%
2017-10-01 / 2018-09-3020882.2%3894.7%
2017-07-01 / 2018-06-3019183.8%3384.8%
2017-04-01 / 2018-03-3119082.1%4484.1%
2017-01-01 / 2017-12-3119178.5%4386%
2016-10-01 / 2017-09-3017679.5%3984.6%
2016-07-01 / 2017-06-3016377.3%4190.2%
2016-04-01 / 2017-03-3113979.1%2796.3%
2016-01-01 / 2016-12-3112681%2696.2%
2015-10-01 / 2016-09-3011380.5%1994.7%
2015-07-01 / 2016-06-3010188.1%10100%
2015-04-01 / 2016-03-319086.7%12100%
2015-01-01 / 2015-12-318489.3%8100%
2014-10-01 / 2015-09-308892%6100%
Local comparison

How does this school compare?

Position at CBR

Insufficient data for a position at CBR Mierlo.

See the full ranking at CBR Mierlo
First attempt 90.8% 447 first exams at this centre
Exam centre Mierlo 2025-07-01 – 2026-06-30
How do we compare?

We compare the same vehicle category and reporting period at the same CBR exam centre. Only first exams at this centre count, not the school total. The school's busiest centre is selected initially. The comparison score weights CBR results at 70% and the whole-school Google rating at 30%. For CBR we use the 95% Wilson lower bound, which accounts for exam volume. A lower bound of 30% gives 0 component points and 70% gives 100, with a linear scale between them. This is not the ordinary pass percentage. Google uses 20 reviews at 4.05 as a neutral prior, reducing the influence of small samples. An adjusted Google rating of 3.2 gives 0 component points and 4.9 gives 100, with a linear scale between them. Each component is capped outside these thresholds. A score requires at least 10 first exams at this centre and 5 Google reviews. The Wilson lower bound already discounts small samples, so a smaller school enters without an advantage. A rank requires 5 comparable schools; ties share a position. These thresholds are editorial choices, not measured population limits. Ranking uses the unrounded score; rounded scores can appear tied. Prices are excluded. This is our editorial comparison, not a CBR endorsement or a prediction of your pass probability.

Reviews on Google

Review text is not available for this school yet.

About the school

Bij onze rijschool kun je vertrouwen op meer dan 40 jaar ervaring in het opleiden van leerlingen voor hun rijbewijs. Voor zowel het autorijbewijs (B), het aanhangerrijbewijs (BE), het motorrijbewijs(A) en het bromfietsrijbewijs (AM). Voor elke categorie hebben wij specialisten in huis welke jarenlange ervaring hebben. Wij geloven in een persoonlijke aanpak. Iedere leerling is uniek, daarom passen wij onze lesmethode aan op jouw tempo en leerstijl. Wat ooit begon als een passie voor autorijden, is uitgegroeid tot de meest gerenommeerde rijschool van de regio. Bij Wilco staat de leerling centraal. Geen stress, geen haast, maar een gedegen opleiding waar je de rest van je leven plezier van hebt. Op korte termijn nog een dagopleiding voor de scooter kunnen doen. Wij komen niet uit de omgeving dus was een beetje huiverig dat de wegen onbekend zouden zijn, dit bleek geen probleem. Fijne begeleiding gehad ... Hier werken zeer bekwame en flexibele medewerkers. Wilco is goed te bereiken en makkelijk in de communicatie. Dit is een fijne rijschool die mij de kneepjes van het motorrijden geleerd heeft. Echt een top rijschool. Ik kon de zelfde maand nog terecht voor mijn scooter praktijk les. terwel er bij andere rijscholen een hele lange wacht tijd was. Er word ook voor de lunch gezorgd bij ... Al meer dan 4 decennia een begrip in de regio. Wij leiden op tot bewuste, veilige en zelfverzekerde weggebruikers.

Read more on the school website ↗
  • Intensive course
Source: school website ↗

Lesson prices and packages

Scooter lessons

€60.00 per lesson (lesson length not stated)

Scooter lessons — Lesson prices and packages
OfferWhat you getPricePer hour
Losse rijles AM €60.00
Herexamenpakket AM incl. herexamen€240.00
Doe nog een volledige dagopleiding + herxamen Mocht je dan de 1ste keer niet slagen AM incl. herexamen€60.00
Volledige scooter praktijkopleiding AM incl. praktijkexamen€495.00

Prices from the school; confirm current offers. Compare hourly rates for individual lessons only.

Price details and other categories

This school also lists prices for: Motorcycle, Theory.

Prices read on 9/5/2026.

Contact and location

CBR school code
3212Z8
Address
Industrieweg 12
5753PC Deurne
Phone
+31493318768
Email
[email protected]
Website
rijschoolwilco.nl
On the map1 school

Approximate locations: town centres, not verified lesson addresses.

Exam locations

  • Mierlo (Geldropseweg 10)

These are exam locations from the reporting period, not confirmed teaching or pickup areas.

Questions for your trial lesson
  • Will I keep the same instructor, and how often can I take lessons?
  • What does a lesson cost, how long is it and what does a package include?
  • What are the cancellation, withdrawal and refund terms?
  • How will we discuss my progress and readiness for the exam?
Sources and corrections

School details come from its own website and may be out of date.

Sources: School

Imported on 2026-09-03. The ranking is produced by Theorio, not an endorsement by CBR. If information appears incorrectly matched, include the school code when contacting us.